This demonstration page uses our WeatherBlox Daily Observations layout. Learn more.

Hourly Observations for October 10, 2015

Temp ( °F °C ) Dew Point ( °F °C ) Humidity (%) Winds ( mph kmh ) Pressure ( in mb ) Visibility ( mi km ) Precip ( " mm )
12:15 am 00:15 Clear 50 9.9 41 5 72 72 Calm 30.21 1023 10 16.0934 0 0
12:35 am 00:35 Clear 50 10.1 42 5.3 72 72 S 5 7 30.21 1023 10 16.0934 0 0
12:55 am 00:55 Clear 50 10 41 5.2 72 72 S 5 7 30.21 1023 10 16.0934 0 0
1:15 am 01:15 Clear 50 9.8 42 5.3 74 74 Calm 30.21 1023 10 16.0934 0 0
1:35 am 01:35 Clear 48 8.8 41 5.1 78 78 SSE 5 7 30.21 1023 10 16.0934 0 0
1:55 am 01:55 Clear 48 9 41 5.2 77 77 S 3 6 30.21 1023 10 16.0934 0 0
2:15 am 02:15 Clear 49 9.5 42 5.7 77 77 S 5 7 30.18 1022 10 16.0934 0 0
2:35 am 02:35 Clear 51 10.3 42 5.6 73 73 SSW 8 13 30.18 1022 10 16.0934 0 0
2:55 am 02:55 Clear 51 10.7 42 5.5 71 71 SSW 8 13 30.15 1021 10 16.0934 0 0
3:15 am 03:15 Clear 51 10.7 42 5.5 71 71 SSW 7 11 30.15 1021 10 16.0934 0 0
3:35 am 03:35 Clear 52 11 42 5.5 69 69 SSW 8 13 30.12 1020 10 16.0934 0 0
3:55 am 03:55 Clear 51 10.7 42 5.5 71 71 SW 8 13 30.12 1020 10 16.0934 0 0
4:15 am 04:15 Clear 52 10.9 42 5.5 70 70 SSW 9 15 30.12 1020 10 16.0934 0 0
4:35 am 04:35 Clear 52 11 42 5.5 69 69 SSW 9 15 30.12 1020 10 16.0934 0 0
4:55 am 04:55 Clear 52 11 42 5.6 70 70 SSW 7 11 30.12 1020 10 16.0934 0 0
5:15 am 05:15 Clear 52 11 42 5.5 69 69 SSW 8 13 30.12 1020 10 16.0934 0 0
5:35 am 05:35 Clear 52 11 42 5.5 69 69 SSW 9 15 30.12 1020 10 16.0934 0 0
5:55 am 05:55 Clear 52 11.1 42 5.5 69 69 SSW 10 17 30.12 1020 10 16.0934 0 0
6:15 am 06:15 Clear 52 11 42 5.5 69 69 SSW 9 15 30.12 1020 10 16.0934 0 0
6:35 am 06:35 Clear 51 10.8 42 5.5 70 70 SSW 8 13 30.12 1020 10 16.0934 0 0
6:55 am 06:55 Clear 51 10.5 42 5.5 71 71 S 8 13 30.12 1020 10 16.0934 0 0
7:15 am 07:15 Clear 51 10.3 42 5.4 72 72 SSW 8 13 30.15 1021 10 16.0934 0 0
7:35 am 07:35 Clear 50 10.1 42 5.4 73 73 SSW 8 13 30.15 1021 10 16.0934 0 0
7:55 am 07:55 Sunny 50 10.1 42 5.5 73 73 S 8 13 30.15 1021 10 16.0934 0 0
8:15 am 08:15 Sunny 51 10.5 42 5.6 72 72 SSW 7 11 30.12 1020 10 16.0934 0 0
8:35 am 08:35 Sunny 53 11.5 43 5.9 69 69 SSW 9 15 30.12 1020 10 16.0934 0 0
8:55 am 08:55 Sunny 54 12.2 43 6.1 67 67 SSW 10 17 30.12 1020 10 16.0934 0 0
9:15 am 09:15 Sunny 55 13 44 6.5 65 65 SSW 12 19 30.12 1020 10 16.0934 0 0
9:35 am 09:35 Sunny 57 13.9 45 7.2 64 64 SSW 15 24 30.09 1019 10 16.0934 0 0
9:55 am 09:55 Sunny 59 15.2 46 7.9 62 62 SSW 13 20 30.09 1019 10 16.0934 0 0
10:15 am 10:15 Sunny 60 15.8 47 8.3 61 61 SSW 14 22 30.06 1018 10 16.0934 0 0
10:35 am 10:35 Sunny 62 16.9 48 9 60 60 SW 13 20 30.03 1017 10 16.0934 0 0
10:55 am 10:55 Sunny 64 17.6 49 9.3 58 58 SW 15 24 30.03 1017 10 16.0934 0 0
11:15 am 11:15 Sunny 65 18.5 50 10 58 58 SW 15 24 30.03 1017 10 16.0934 0 0
11:35 am 11:35 Sunny 67 19.6 51 10.5 56 56 SSW 13 20 30.03 1017 10 16.0934 0 0
11:55 am 11:55 Sunny 69 20.5 51 10.6 53 53 SSW 13 20 30 1016 10 16.0934 0 0
12:15 pm 12:15 Sunny 70 21.2 52 10.9 52 52 SSW 17 28 29.97 1015 10 16.0934 0 0
12:35 pm 12:35 Sunny 71 21.9 52 10.9 50 50 S 18 30 29.97 1015 10 16.0934 0 0
12:55 pm 12:55 Sunny 73 22.5 52 11.1 49 49 SSW 16 26 29.97 1015 10 16.0934 0 0
1:15 pm 13:15 Sunny 74 23.2 52 11.2 47 47 S 15 24 29.94 1014 10 16.0934 0 0
1:55 pm 13:55 Sunny 76 24.6 52 10.9 42 42 SSW 14 22 29.88 1012 10 16.0934 0 0
2:15 pm 14:15 Sunny 77 25.2 52 11.1 41 41 S 15 24 29.88 1012 10 16.0934 0 0
2:35 pm 14:35 Sunny 78 25.8 51 10.8 39 39 SW 13 20 29.88 1012 10 16.0934 0 0
2:55 pm 14:55 Sunny 79 25.9 51 10.6 38 38 S 14 22 29.85 1011 10 16.0934 0 0
3:15 pm 15:15 Sunny 80 26.5 51 10.4 36 36 S 14 22 29.83 1010 10 16.0934 0 0
3:35 pm 15:35 Sunny 80 26.6 50 9.8 35 35 SSW 14 22 29.83 1010 10 16.0934 0 0
3:55 pm 15:55 Sunny 81 27.3 49 9.7 33 33 S 13 20 29.83 1010 10 16.0934 0 0
4:15 pm 16:15 Sunny 81 27 49 9.4 33 33 SSW 13 20 29.8 1009 10 16.0934 0 0
4:35 pm 16:35 Sunny 81 27.3 49 9.4 33 33 SSW 13 20 29.8 1009 10 16.0934 0 0
4:55 pm 16:55 Sunny 80 26.9 49 9.5 34 34 S 14 22 29.8 1009 10 16.0934 0 0
5:15 pm 17:15 Sunny 80 26.6 49 9.5 34 34 SSW 13 20 29.8 1009 10 16.0934 0 0
5:35 pm 17:35 Sunny 80 26.6 49 9.4 34 34 S 14 22 29.8 1009 10 16.0934 0 0
5:55 pm 17:55 Sunny 79 26.2 49 9.5 35 35 S 13 20 29.83 1010 10 16.0934 0 0
6:15 pm 18:15 Sunny 78 25.8 49 9.6 36 36 SSW 12 19 29.83 1010 10 16.0934 0 0
6:35 pm 18:35 Sunny 77 25.1 50 10 39 39 S 9 15 29.8 1009 10 16.0934 0 0
6:55 pm 18:55 Sunny 75 24 51 10.4 42 42 S 9 15 29.8 1009 10 16.0934 0 0
7:15 pm 19:15 Clear 73 22.5 52 11 48 48 S 10 17 29.8 1009 10 16.0934 0 0
7:35 pm 19:35 Clear 71 21.5 52 11.1 52 52 S 8 13 29.83 1010 10 16.0934 0 0
7:55 pm 19:55 Clear 70 21 52 11.1 53 53 S 8 13 29.83 1010 10 16.0934 0 0
8:15 pm 20:15 Clear 69 20.4 52 11.2 56 56 S 9 15 29.83 1010 10 16.0934 0 0
8:35 pm 20:35 Clear 69 20.7 53 11.7 56 56 S 9 15 29.83 1010 10 16.0934 0 0
8:55 pm 20:55 Clear 68 19.8 53 11.6 59 59 S 9 15 29.83 1010 10 16.0934 0 0
9:15 pm 21:15 Clear 67 19.2 53 11.7 62 62 S 8 13 29.83 1010 10 16.0934 0 0
9:35 pm 21:35 Clear 67 19.3 53 11.8 62 62 S 8 13 29.83 1010 10 16.0934 0 0
9:55 pm 21:55 Clear 66 19 54 12 64 64 S 12 19 29.83 1010 10 16.0934 0 0
10:15 pm 22:15 Clear 66 18.8 54 12 65 65 S 9 15 29.83 1010 10 16.0934 0 0
10:35 pm 22:35 Clear 65 18.5 54 12.2 67 67 S 10 17 29.8 1009 10 16.0934 0 0
10:55 pm 22:55 Clear 64 18 54 12.2 69 69 S 8 13 29.83 1010 10 16.0934 0 0
11:15 pm 23:15 Clear 63 17.3 54 12.1 72 72 S 8 13 29.83 1010 10 16.0934 0 0
11:35 pm 23:35 Clear 63 17.1 54 12.2 73 73 S 8 13 29.83 1010 10 16.0934 0 0
11:55 pm 23:55 Clear 62 16.7 54 12.2 75 75 S 6 9 29.83 1010 10 16.0934 0 0

Powered by AerisWeather